sat.trackr.live / text

‹ back to catalog

STARLINK-5222

NORAD 54068 · 2022-136T

PAYLOAD ACTIVE UNKNOWN

§ Identity

Operator
Country
US
Launch date
2022-10-20
Launch site
AFETR
Launch vehicle
Mass (kg)
RCS (m²)

Purposes: comms

External: N2YO · Heavens-Above · Gunter

§ Orbital elements

Epoch: 2026-05-24T23:29:11.656032Z

Period
95.44 min
Inclination
53.2138°
Eccentricity
0.0001025
Mean motion
15.08840184 rev/d
Perigee alt
539.0 km
Apogee alt
540.5 km
Semi-major
6,917.9 km
B*
2.9758e-5
RAAN
1.4575°
Arg perigee
77.2146°
Mean anomaly
282.8961°
Rev number
19,836

§ Raw data

STARLINK-52221 54068U 22136T   26144.97860713  .00000186  00000+0  29758-4 0  99942 54068  53.2138   1.4575 0001025  77.2146 282.8961 15.08840184198366

JSON: /api/v1/satellites/54068 · /tle

For live sub-satellite position, see the globe view (requires WebGL).

§ Visibility from observer

Set your observer location to see the next 7 days of passes ≥ 10°. The values pass through the URL so the page stays shareable.

No JS? Fill the form by hand. The geolocation button needs JavaScript.